Volver al catálogo

KINEIS-2E

ActivoComunicacionesSSO
NORAD 62931·PAYLOAD·🇫🇷 France

Lanzado Feb 8, 2025 desde Rocket Lab Launch Complex 1

Loading…

Próximos Pases (próximas 24 horas)

TLE

ActualizadoSource: Space-Track

Época: Sep 14, 2026, 21:55 UTC

1 62931U 25028D   26257.91330198  .00000934  00000-0  13891-3 0  9995
2 62931  97.8871 307.6095 0001045 112.6327 247.4994 14.77210886 86024

Sigue KINEIS-2E en tiempo real con AllMySat

Download on the App Store